Tracking 31027 objects as of 19-Jul-2025
HD Live streaming from Space Station
objects crossing your sky now

STARLINK-5910

Track STARLINK-5910 now!
10-day predictions
STARLINK-5910 is classified as:


NORAD ID: 56000
Int'l Code: 2023-042Q
Perigee: 565.2 km
Apogee: 567.2 km
Inclination: 43.0 °
Period: 95.8 minutes
Semi major axis: 6937 km
RCS: Unknown
Launch date: March 24, 2022
Source: United States (US)
Launch site: AIR FORCE EASTERN TEST RANGE (AFETR)
Your satellite tracking list
THORAD DELTA 1 DEB
Track 1 satellite(s)




NASA's NSSDC Master Catalog

Two Line Element Set (TLE):
1 56000U 23042Q   25199.81992316 -.00000186  00000-0  13212-5 0  9997
2 56000  43.0028 246.6075 0001443 277.8744  82.1935 15.02534378128075
Source of the keplerian elements: AFSPC